TimeCST,TemperatureF,Dew PointF,Humidity,Sea Level PressureIn,VisibilityMPH,Wind Direction,Wind SpeedMPH,Gust SpeedMPH,PrecipitationIn,Events,Conditions,WindDirDegrees,DateUTC
6:00 AM,73,72,94,29.87,0,SSW,3.5,,,Fog,Heavy Fog,200,2013-11-08 12:00:00
6:00 AM,73.4,71.6,94,29.85,0.1,SSW,3.5,-,N/A,Fog,Fog,200,2013-11-08 12:00:00
7:00 AM,73.4,71.6,94,29.88,0.3,Calm,Calm,-,N/A,Fog,Fog,0,2013-11-08 13:00:00
7:20 AM,73.4,73.4,100,29.89,3.1,ENE,2.3,-,N/A,,Mostly Cloudy,70,2013-11-08 13:20:00
8:00 AM,75.2,73.4,94,29.90,1.9,NNE,4.6,-,N/A,Rain,Light Rain,20,2013-11-08 14:00:00
8:02 AM,75.2,73.4,94,29.90,3.1,NNE,4.6,-,N/A,Rain,Light Rain,30,2013-11-08 14:02:00
9:00 AM,75,73,92,29.90,9,North,2.3,,,Rain,Light Rain,350,2013-11-08 15:00:00
9:00 AM,75.2,73.4,94,29.89,6.2,North,2.3,-,N/A,Rain,Light Rain,350,2013-11-08 15:00:00
10:00 AM,78.8,75.2,89,29.89,6.2,South,3.5,-,N/A,,Mostly Cloudy,190,2013-11-08 16:00:00
11:00 AM,82.4,73.4,74,29.86,6.2,NNW,4.6,-,N/A,,Mostly Cloudy,340,2013-11-08 17:00:00
12:00 PM,83,72,63,29.83,12,NNW,4.6,,,,Partly Cloudy,340,2013-11-08 18:00:00
12:00 PM,82.4,73.4,74,29.81,6.2,NNW,4.6,-,N/A,,Mostly Cloudy,340,2013-11-08 18:00:00
1:00 PM,86.0,73.4,66,29.77,6.2,WNW,3.5,-,N/A,,Mostly Cloudy,290,2013-11-08 19:00:00
2:00 PM,84.2,73.4,70,29.73,6.2,WNW,8.1,-,N/A,,Mostly Cloudy,290,2013-11-08 20:00:00
2:39 PM,82.4,73.4,74,29.73,6.2,West,9.2,-,N/A,Rain,Rain,280,2013-11-08 20:39:00
3:00 PM,80,75,81,29.75,12,SW,5.8,,,Rain,Rain,230,2013-11-08 21:00:00
3:00 PM,78.8,75.2,89,29.74,6.2,NW,5.8,-,N/A,Rain,Rain,320,2013-11-08 21:00:00
4:00 PM,77.0,73.4,89,29.74,6.2,West,4.6,-,N/A,,Mostly Cloudy,270,2013-11-08 22:00:00
5:00 PM,78.8,75.2,89,29.76,6.2,South,2.3,-,N/A,,Scattered Clouds,170,2013-11-08 23:00:00
6:00 PM,78,75,88,29.79,12,SSE,2.3,,,,Scattered Clouds,160,2013-11-09 00:00:00
6:00 PM,77.0,75.2,94,29.77,6.2,SSE,2.3,-,N/A,,Scattered Clouds,160,2013-11-09 00:00:00
7:00 PM,77.0,75.2,94,29.80,6.2,South,4.6,-,N/A,,Scattered Clouds,180,2013-11-09 01:00:00
8:00 PM,77.0,75.2,94,29.82,6.2,SSE,3.5,-,N/A,,Scattered Clouds,150,2013-11-09 02:00:00